DECAYED

STARLINK-2044, 47660 (Decayed)

Orbit data source: Space-Track

STARLINK-2044, 47660 was a payload satellite owned by SpaceX/Seattle (US) in LEO that was launched on Tue, 16 Feb 2021 UTC via an FALCON 9 launch vehicle from the Air Force Eastern Test Range (AFETR). Payload-class satellites include a variety of spacecraft equipped with specific instruments for various scientific and technological missions. These include communications satellites like Starlink; space stations such as the ISS; scientific satellites like the Hubble; Earth observation satellites from companies like Planet Labs, Umbra, and HawkEye 360; GPS; miniature CubeSats for education and research; and military/defense satellites.

Not visible in the next 10 days
Identifier
47660, 2021-012AS
Orbit
Decayed
Country
Flag of USUS
Related business
Manufacturer
SpaceX/Seattle
Mission
Decayed Commercial Communications
Bus & Motor
STARLINK, Unknown motor
Mass
260 kg wet, ~248 kg dry
Launch date (UTC)
2021-02-16 (5 years ago)
Launch vehicle
FALCON 9
Launch site
Air Force Eastern Test Range (AFETR)
Object type
Payload
Rocket body
Debris
Shape & HBR
Box + 1 Pan, 10.1 m
Radar Cross Section
13.562 m², Large (>1 m²)

Expand to show TLE details & history
Last TLE update: 9 months ago

TLE from 9 months ago
0 STARLINK-2044
1 47660U 21012AS  25071.15485541  .21859415  12474-4  54430-3 0  9993
2 47660  53.0194  86.6745 0004616 229.4760 208.5293 16.45836618227200
Epoch: 2025-03-12T03:42Z
TLE epoch observation values (Epoch: 2025-03-12T03:42:59.507Z)
Latitude
51.5396°
Longitude
-68.63461°
Altitude
159.073 km
Speed
7.816 km/s
True Right ascension
10h 28m 38s
True Declination
51° 21' 24"
Sunlit
Object was in full shadow at epoch
Visualization orbit readout
Latitude
Unknown
Longitude
Unknown
Altitude
Unknown
Speed
Unknown
Apparent Right ascension
Unknown
Apparent Declination
Unknown
Sunlit
N/A
Visualization observer readout
Local Sidereal Time
11:56:58
Azimuth
Unknown
Elevation
Unknown
Doppler factor
Unknown
Orbital elements
Apogee altitude
153.629 km
Perigee altitude
147.601 km
Semi-major axis
6,528.752 km
Eccentricity
0.00046
Inclination
53.0194°
RAAN
86.6745°
Arg. of periapsis
229.476°
True anomaly
208.50405°
Mean anomaly
208.5293°
Eccentric anomaly
208.51667°
Mean motion
4.11432 °/min
Orbital period
87.5 mins
BSTAR
0.0005443
Loading maneuver chart data...
Computing Atmospheric mass density...
Loading historical data...
Loading historical data...
Loading historical data...
Loading historical data...
Loading historical data...
Loading historical data...
Loading historical data...

Documentation

Showing up to 5 results
|